TITAN 3C TRANSTAGE DEB, 43448

Orbit data source: Space-Track

TITAN 3C TRANSTAGE DEB, 43448 is space debris in GEO originally from a launch on Sun, 09 Feb 1969 UTC launched from the Air Force Eastern Test Range (AFETR). Debris objects in space refer to the collection of defunct objects orbiting the Earth. Examples of debris include non-operational satellites, rocket bodies, and fragments generated from explosions, collisions, or faulty payload assembly.

Not visible in the next 10 days
Identifier
43448, 1969-013H
Orbit
GEO
Last TLE update
1 day ago
Origin
Manufacturer
Martin Marietta
Mission
Spacecraft
Bus & Motor
Unknown
Mass
Unknown
Launch date (UTC)
1969-02-09 (56 years ago)
Launch vehicle
Unknown
Launch site
Air Force Eastern Test Range (AFETR)
Object type
Payload
Rocket body
Debris
Shape & HBR
Unknown
Radar Cross Section
RCS unknown

Expand to show TLE details & history

TLE from 1 day ago
0 TITAN 3C TRANSTAGE DEB
1 43448U 69013H   25181.26155110 -.00000263  00000-0  00000+0 0  9991
2 43448   0.4439 158.7500 0287494 338.6367 224.8762  0.98710152 26003
Epoch: 2025-06-30T06:16Z
TLE epoch observation values (Epoch: 2025-06-30T06:16:38.015Z)
Latitude
-0.16919°
Longitude
-12.73291°
Altitude
37,111.908 km
Speed
2.996 km/s
True Right ascension
23h 59m 59s
True Declination
0° 10' 08"
Sunlit
Object was in daylight at epoch
Visualization orbit readout
Latitude
-0.33387°
Longitude
15.0705°
Altitude
36,604.57 km
Speed
3.032 km/s
Apparent Right ascension
02h 17m 22s
Apparent Declination
-5° 45' 22"
Sunlit
Object is in daylight
Visualization observer readout
Local Sidereal Time
20:09:41
Azimuth
93.196° ESE
Elevation
-5.16°
Doppler factor
1
Orbital elements
Apogee altitude
37,456.193 km
Perigee altitude
35,006.207 km
Semi-major axis
42,609.337 km
Eccentricity
0.02875
Inclination
0.4439°
RAAN
158.75°
Arg. of periapsis
338.6367°
True anomaly
Unknown
Mean anomaly
224.8762°
Eccentric anomaly
Unknown
Mean motion
0.24677 °/min
Orbital period
1,458.87 mins
BSTAR
0
Loading historical data...
43448 neighbors
Loading maneuver chart data...
Loading SW <> Apogee altitude chart data...

TITAN 3C TRANSTAGE DEB Visibility

Observer location: undefined°, undefined°

TITAN 3C TRANSTAGE DEB is likely not visible in the next few days
Span
Click to sort rows by Start time (UTC) header in descending order
Start Az.
Max El. time (UTC)
Max El. Az.
Max El.
End time (UTC)
End Az.
|